JIA2006 KPHL-KCHS

Flight info

Callsign JIA2006
Flight time 1h 25m
Altitude 38000
Route OOD TEBEE HAYDO TRPOD Q409 CRPLR DFENC Q109 JOHAR AMYLU AMYLU3
Aircraft CRJ9/M-SDFGIRWY/S

Departure

Time 2026-04-22 00:18
Airport Philadelphia International Airport (KPHL)

Arrival

Time 2026-04-22 01:44
Airport Charleston International Airport (KCHS)
Time Latitude Longitude Altitude Speed Heading
2026-04-22 00:00 39.87526 -75.23985 24 ft 0 kts 136°
2026-04-22 00:04 39.87526 -75.23984 24 ft 0 kts 133°
2026-04-22 00:04 39.87525 -75.23984 24 ft 0 kts 129°
2026-04-22 00:09 39.87519 -75.23974 24 ft 3 kts 128°
2026-04-22 00:09 39.87514 -75.23965 25 ft 0 kts 128°
2026-04-22 00:11 39.87504 -75.23948 24 ft 7 kts 133°
2026-04-22 00:11 39.87456 -75.23915 24 ft 6 kts 159°
2026-04-22 00:12 39.87412 -75.23897 24 ft 7 kts 166°
2026-04-22 00:12 39.87360 -75.23880 24 ft 8 kts 164°
2026-04-22 00:12 39.87331 -75.23857 24 ft 4 kts 134°
2026-04-22 00:12 39.87304 -75.23829 24 ft 5 kts 153°
2026-04-22 00:13 39.87240 -75.23802 24 ft 16 kts 166°
2026-04-22 00:13 39.87120 -75.23760 25 ft 15 kts 160°
2026-04-22 00:13 39.87098 -75.23719 26 ft 12 kts 85°
2026-04-22 00:13 39.87119 -75.23581 24 ft 2 kts 109°
2026-04-22 00:14 39.87099 -75.23561 24 ft 10 kts 153°
2026-04-22 00:14 39.87045 -75.23540 24 ft 7 kts 165°
2026-04-22 00:14 39.86994 -75.23523 24 ft 9 kts 166°
2026-04-22 00:14 39.86981 -75.23518 24 ft 2 kts 165°
2026-04-22 00:15 39.86936 -75.23503 25 ft 13 kts 165°
2026-04-22 00:15 39.86897 -75.23501 24 ft 2 kts 208°
2026-04-22 00:15 39.86883 -75.23525 26 ft 11 kts 240°
2026-04-22 00:15 39.86860 -75.23626 24 ft 14 kts 255°
2026-04-22 00:16 39.86841 -75.23717 25 ft 11 kts 255°
2026-04-22 00:16 39.86839 -75.23728 25 ft 0 kts 255°
2026-04-22 00:16 39.86839 -75.23729 25 ft 0 kts 255°
2026-04-22 00:17 39.86838 -75.23731 25 ft 1 kts 255°
2026-04-22 00:17 39.86802 -75.23914 24 ft 61 kts 255°
2026-04-22 00:18 39.86621 -75.24812 24 ft 141 kts 254°
2026-04-22 00:18 39.86356 -75.26263 399 ft 172 kts 256°
2026-04-22 00:18 39.86108 -75.27850 1181 ft 187 kts 255°
2026-04-22 00:18 39.85545 -75.29366 1780 ft 202 kts 219°
2026-04-22 00:19 39.84292 -75.30167 2544 ft 206 kts 180°
2026-04-22 00:19 39.82911 -75.29785 3425 ft 205 kts 149°
2026-04-22 00:19 39.81607 -75.28972 4417 ft 211 kts 154°
2026-04-22 00:19 39.80206 -75.28351 5378 ft 217 kts 162°
2026-04-22 00:20 39.78691 -75.28019 6333 ft 223 kts 172°
2026-04-22 00:20 39.77117 -75.28035 7269 ft 229 kts 181°
2026-04-22 00:20 39.75522 -75.28271 8195 ft 234 kts 184°
2026-04-22 00:20 39.73897 -75.28574 9093 ft 237 kts 185°
2026-04-22 00:21 39.72202 -75.28884 9607 ft 259 kts 185°
2026-04-22 00:21 39.70317 -75.29195 9940 ft 286 kts 184°
2026-04-22 00:21 39.68266 -75.29513 10412 ft 307 kts 184°
2026-04-22 00:21 39.66083 -75.29848 10947 ft 324 kts 185°
2026-04-22 00:22 39.63827 -75.30213 11515 ft 338 kts 185°
2026-04-22 00:22 39.61465 -75.30635 12327 ft 344 kts 186°
2026-04-22 00:22 39.59076 -75.31066 13158 ft 348 kts 186°
2026-04-22 00:22 39.56663 -75.31504 13961 ft 353 kts 186°
2026-04-22 00:23 39.54211 -75.31867 14737 ft 357 kts 184°
2026-04-22 00:23 39.51726 -75.32197 15494 ft 361 kts 184°
2026-04-22 00:23 39.49213 -75.32532 16218 ft 365 kts 185°
2026-04-22 00:23 39.46674 -75.32922 16921 ft 369 kts 185°
2026-04-22 00:24 39.44109 -75.33323 17606 ft 373 kts 186°
2026-04-22 00:24 39.41516 -75.33730 18268 ft 377 kts 186°
2026-04-22 00:24 39.38891 -75.34146 18909 ft 381 kts 185°
2026-04-22 00:24 39.36254 -75.34561 19528 ft 385 kts 186°
2026-04-22 00:25 39.33612 -75.34974 20105 ft 388 kts 186°
2026-04-22 00:25 39.30931 -75.35518 20682 ft 392 kts 189°
2026-04-22 00:25 39.28245 -75.36193 21226 ft 396 kts 190°
2026-04-22 00:25 39.25537 -75.36885 21756 ft 399 kts 190°
2026-04-22 00:26 39.22794 -75.37577 22272 ft 402 kts 190°
2026-04-22 00:26 39.20044 -75.38222 22768 ft 405 kts 188°
2026-04-22 00:26 39.17240 -75.38753 23247 ft 408 kts 186°
2026-04-22 00:26 39.14406 -75.39219 23714 ft 411 kts 186°
2026-04-22 00:27 39.11557 -75.39679 24159 ft 414 kts 186°
2026-04-22 00:27 39.08680 -75.40148 24587 ft 416 kts 186°
2026-04-22 00:27 39.05854 -75.40648 24998 ft 419 kts 186°
2026-04-22 00:27 39.02937 -75.41166 25411 ft 422 kts 187°
2026-04-22 00:28 39.00025 -75.41682 25811 ft 425 kts 187°
2026-04-22 00:28 38.97083 -75.42207 26182 ft 427 kts 187°
2026-04-22 00:28 38.94125 -75.42729 26551 ft 430 kts 187°
2026-04-22 00:28 38.91150 -75.43257 26904 ft 432 kts 187°
2026-04-22 00:29 38.88155 -75.43792 27247 ft 434 kts 187°
2026-04-22 00:29 38.85188 -75.44315 27574 ft 437 kts 187°
2026-04-22 00:29 38.82129 -75.44859 27900 ft 439 kts 187°
2026-04-22 00:29 38.79131 -75.45386 28207 ft 441 kts 187°
2026-04-22 00:30 38.76078 -75.45924 28504 ft 443 kts 187°
2026-04-22 00:30 38.73023 -75.46466 28800 ft 445 kts 187°
2026-04-22 00:30 38.69941 -75.47007 29085 ft 447 kts 187°
2026-04-22 00:30 38.66851 -75.47553 29359 ft 449 kts 187°
2026-04-22 00:31 38.63745 -75.48098 29627 ft 451 kts 187°
2026-04-22 00:31 38.60641 -75.48647 29882 ft 453 kts 187°
2026-04-22 00:31 38.57502 -75.49197 30140 ft 455 kts 187°
2026-04-22 00:31 38.54402 -75.49739 30831 ft 444 kts 187°
2026-04-22 00:32 38.51367 -75.50278 31482 ft 436 kts 187°
2026-04-22 00:32 38.48365 -75.50801 31857 ft 435 kts 186°
2026-04-22 00:32 38.45364 -75.51327 32174 ft 434 kts 187°
2026-04-22 00:32 38.42410 -75.51842 32480 ft 434 kts 187°
2026-04-22 00:33 38.39437 -75.52362 32776 ft 433 kts 187°
2026-04-22 00:33 38.36468 -75.53123 33036 ft 434 kts 197°
2026-04-22 00:33 38.33677 -75.54605 33302 ft 434 kts 204°
2026-04-22 00:33 38.30963 -75.56284 33556 ft 434 kts 206°
2026-04-22 00:34 38.28305 -75.58117 33809 ft 434 kts 210°
2026-04-22 00:34 38.25775 -75.60233 34058 ft 434 kts 214°
2026-04-22 00:34 38.24148 -75.61719 34228 ft 434 kts 215°
2026-04-22 00:34 38.20908 -75.64710 34537 ft 433 kts 215°
2026-04-22 00:35 38.18444 -75.66919 34760 ft 433 kts 213°
2026-04-22 00:35 38.15953 -75.69075 34981 ft 432 kts 213°
2026-04-22 00:35 38.13464 -75.71234 35219 ft 432 kts 213°
2026-04-22 00:35 38.10979 -75.73391 35433 ft 432 kts 213°
2026-04-22 00:36 38.08500 -75.75541 35633 ft 431 kts 213°
2026-04-22 00:36 38.06047 -75.77664 35826 ft 431 kts 213°
2026-04-22 00:36 38.03569 -75.79810 36027 ft 431 kts 213°
2026-04-22 00:36 38.01094 -75.81949 36220 ft 430 kts 213°
2026-04-22 00:37 37.98618 -75.84089 36396 ft 430 kts 213°
2026-04-22 00:37 37.96142 -75.86226 36573 ft 430 kts 213°
2026-04-22 00:37 37.93663 -75.88362 36743 ft 430 kts 213°
2026-04-22 00:37 37.91182 -75.90487 36891 ft 431 kts 213°
2026-04-22 00:38 37.88700 -75.92603 37067 ft 431 kts 213°
2026-04-22 00:38 37.86212 -75.94719 37230 ft 431 kts 213°
2026-04-22 00:38 37.83730 -75.96842 37403 ft 431 kts 213°
2026-04-22 00:38 37.81255 -75.98976 37569 ft 430 kts 213°
2026-04-22 00:39 37.78814 -76.01081 37739 ft 430 kts 213°
2026-04-22 00:39 37.76340 -76.03205 37870 ft 431 kts 213°
2026-04-22 00:39 37.73848 -76.05335 37941 ft 433 kts 213°
2026-04-22 00:40 37.68819 -76.09634 37993 ft 439 kts 213°
2026-04-22 00:40 37.63714 -76.13999 38004 ft 447 kts 213°
2026-04-22 00:41 37.58298 -76.17973 38008 ft 452 kts 205°
2026-04-22 00:41 37.52523 -76.21094 38009 ft 459 kts 201°
2026-04-22 00:42 37.46575 -76.24171 38007 ft 464 kts 202°
2026-04-22 00:42 37.40630 -76.27396 38003 ft 464 kts 202°
2026-04-22 00:43 37.34704 -76.30591 37999 ft 463 kts 202°
2026-04-22 00:43 37.29766 -76.33252 37998 ft 463 kts 202°
2026-04-22 00:44 37.23846 -76.36436 37997 ft 463 kts 202°
2026-04-22 00:44 37.17920 -76.39616 37997 ft 462 kts 202°
2026-04-22 00:45 37.12003 -76.42790 37998 ft 462 kts 202°
2026-04-22 00:45 37.06088 -76.45957 37998 ft 462 kts 202°
2026-04-22 00:46 37.00174 -76.49114 37998 ft 462 kts 202°
2026-04-22 00:46 36.94307 -76.52239 37998 ft 462 kts 202°
2026-04-22 00:47 36.88403 -76.55384 37999 ft 462 kts 202°
2026-04-22 00:47 36.82476 -76.58536 37999 ft 462 kts 202°
2026-04-22 00:48 36.76568 -76.61670 37999 ft 462 kts 202°
2026-04-22 00:48 36.70650 -76.64803 37999 ft 462 kts 202°
2026-04-22 00:49 36.64731 -76.67930 37999 ft 462 kts 202°
2026-04-22 00:49 36.58822 -76.71056 37999 ft 462 kts 202°
2026-04-22 00:50 36.52906 -76.74172 37999 ft 461 kts 202°
2026-04-22 00:50 36.47031 -76.77263 37999 ft 461 kts 202°
2026-04-22 00:51 36.41114 -76.80369 37999 ft 461 kts 202°
2026-04-22 00:51 36.35188 -76.83481 37999 ft 461 kts 202°
2026-04-22 00:52 36.29269 -76.86577 37999 ft 461 kts 202°
2026-04-22 00:52 36.23347 -76.89671 37999 ft 462 kts 202°
2026-04-22 00:53 36.17427 -76.92759 37999 ft 462 kts 202°
2026-04-22 00:53 36.11518 -76.95840 37999 ft 462 kts 202°
2026-04-22 00:54 36.05585 -76.98925 38000 ft 462 kts 202°
2026-04-22 00:54 35.99664 -77.01998 38000 ft 462 kts 202°
2026-04-22 00:55 35.93798 -77.05082 37993 ft 462 kts 206°
2026-04-22 00:55 35.85891 -77.11851 38004 ft 463 kts 219°
2026-04-22 00:56 35.80941 -77.16959 38001 ft 463 kts 218°
2026-04-22 00:56 35.75908 -77.21906 38000 ft 463 kts 218°
2026-04-22 00:57 35.70859 -77.26856 38000 ft 463 kts 218°
2026-04-22 00:57 35.65847 -77.31770 37999 ft 463 kts 218°
2026-04-22 00:58 35.60794 -77.36708 37999 ft 463 kts 218°
2026-04-22 00:58 35.55737 -77.41641 37998 ft 464 kts 218°
2026-04-22 00:59 35.53194 -77.44121 37760 ft 469 kts 218°
2026-04-22 00:59 35.50635 -77.46615 37436 ft 461 kts 218°
2026-04-22 00:59 35.48156 -77.49024 37109 ft 448 kts 218°
2026-04-22 00:59 35.45743 -77.51372 36773 ft 436 kts 217°
2026-04-22 01:00 35.43426 -77.53621 36439 ft 426 kts 217°
2026-04-22 01:00 35.41118 -77.55838 36125 ft 416 kts 217°
2026-04-22 01:00 35.38865 -77.58016 35815 ft 408 kts 217°
2026-04-22 01:00 35.36662 -77.60163 35496 ft 400 kts 217°
2026-04-22 01:01 35.34491 -77.62266 35190 ft 393 kts 217°
2026-04-22 01:01 35.32365 -77.64324 34884 ft 387 kts 217°
2026-04-22 01:01 35.30260 -77.66359 34573 ft 381 kts 217°
2026-04-22 01:01 35.28232 -77.68319 34269 ft 375 kts 217°
2026-04-22 01:02 35.26182 -77.70300 33963 ft 370 kts 217°
2026-04-22 01:02 35.24176 -77.72237 33653 ft 365 kts 217°
2026-04-22 01:02 35.22187 -77.74155 33347 ft 361 kts 217°
2026-04-22 01:02 35.20227 -77.76046 33040 ft 357 kts 217°
2026-04-22 01:03 35.18286 -77.77913 32738 ft 353 kts 217°
2026-04-22 01:03 35.16369 -77.79763 32436 ft 350 kts 217°
2026-04-22 01:03 35.14475 -77.81582 32192 ft 344 kts 217°
2026-04-22 01:03 35.12610 -77.83378 32077 ft 335 kts 217°
2026-04-22 01:04 35.09053 -77.86797 31992 ft 314 kts 217°
2026-04-22 01:04 35.07364 -77.88416 31980 ft 303 kts 217°
2026-04-22 01:04 35.05747 -77.89969 31970 ft 291 kts 217°
2026-04-22 01:05 35.04176 -77.91472 31961 ft 280 kts 217°
2026-04-22 01:05 35.02678 -77.92911 31953 ft 268 kts 217°
2026-04-22 01:05 35.01242 -77.94284 31710 ft 266 kts 217°
2026-04-22 01:05 34.99763 -77.95702 31407 ft 280 kts 217°
2026-04-22 01:06 34.98173 -77.97223 31146 ft 302 kts 217°
2026-04-22 01:06 34.96450 -77.98872 30903 ft 324 kts 217°
2026-04-22 01:06 34.94618 -78.00624 30669 ft 345 kts 217°
2026-04-22 01:06 34.92664 -78.02494 30431 ft 366 kts 217°
2026-04-22 01:07 34.90605 -78.04461 30189 ft 386 kts 217°
2026-04-22 01:07 34.88445 -78.06528 29938 ft 406 kts 217°
2026-04-22 01:07 34.86166 -78.08716 29654 ft 425 kts 217°
2026-04-22 01:07 34.83788 -78.10994 29348 ft 444 kts 217°
2026-04-22 01:08 34.81308 -78.13362 29033 ft 462 kts 217°
2026-04-22 01:08 34.78745 -78.15813 28718 ft 478 kts 217°
2026-04-22 01:08 34.76119 -78.18327 28398 ft 489 kts 217°
2026-04-22 01:08 34.73544 -78.20782 28183 ft 459 kts 217°
2026-04-22 01:09 34.71078 -78.23139 28073 ft 435 kts 217°
2026-04-22 01:09 34.68751 -78.25354 28019 ft 419 kts 217°
2026-04-22 01:09 34.66495 -78.27508 27989 ft 407 kts 217°
2026-04-22 01:09 34.64284 -78.29610 27982 ft 396 kts 217°
2026-04-22 01:10 34.62143 -78.31650 27977 ft 386 kts 217°
2026-04-22 01:10 34.60048 -78.33638 27976 ft 376 kts 217°
2026-04-22 01:10 34.58005 -78.35577 27975 ft 368 kts 217°
2026-04-22 01:10 34.55999 -78.37461 27771 ft 366 kts 217°
2026-04-22 01:11 34.53978 -78.39376 27300 ft 372 kts 217°
2026-04-22 01:11 34.51924 -78.41315 26894 ft 376 kts 217°
2026-04-22 01:11 34.49885 -78.43230 26609 ft 372 kts 217°
2026-04-22 01:11 34.47869 -78.45131 26304 ft 363 kts 217°
2026-04-22 01:12 34.45894 -78.47001 25997 ft 356 kts 217°
2026-04-22 01:12 34.43967 -78.48832 25689 ft 349 kts 217°
2026-04-22 01:12 34.42079 -78.50621 25379 ft 343 kts 217°
2026-04-22 01:12 34.40204 -78.52392 25057 ft 338 kts 217°
2026-04-22 01:13 34.38353 -78.54138 24674 ft 336 kts 217°
2026-04-22 01:13 34.36513 -78.55874 24293 ft 334 kts 217°
2026-04-22 01:13 34.34688 -78.57594 23917 ft 332 kts 217°
2026-04-22 01:13 34.32870 -78.59317 23498 ft 332 kts 218°
2026-04-22 01:14 34.31156 -78.61164 23190 ft 328 kts 223°
2026-04-22 01:14 34.29575 -78.63142 22882 ft 325 kts 226°
2026-04-22 01:14 34.28031 -78.65128 22582 ft 322 kts 225°
2026-04-22 01:14 34.26509 -78.67006 22287 ft 319 kts 224°
2026-04-22 01:15 34.24909 -78.68902 21995 ft 315 kts 223°
2026-04-22 01:15 34.23358 -78.70751 21679 ft 313 kts 224°
2026-04-22 01:15 34.21822 -78.72603 21377 ft 312 kts 224°
2026-04-22 01:15 34.20281 -78.74448 21071 ft 310 kts 224°
2026-04-22 01:16 34.18752 -78.76284 20772 ft 309 kts 224°
2026-04-22 01:16 34.17227 -78.78106 20471 ft 308 kts 224°
2026-04-22 01:16 34.15708 -78.79925 20170 ft 306 kts 224°
2026-04-22 01:16 34.14196 -78.81731 19874 ft 305 kts 223°
2026-04-22 01:17 34.12726 -78.83485 19582 ft 304 kts 224°
2026-04-22 01:17 34.11213 -78.85293 19278 ft 303 kts 223°
2026-04-22 01:17 34.09716 -78.87082 18973 ft 302 kts 224°
2026-04-22 01:17 34.08225 -78.88860 18675 ft 301 kts 223°
2026-04-22 01:18 34.06734 -78.90640 18375 ft 301 kts 223°
2026-04-22 01:18 34.05247 -78.92411 18077 ft 300 kts 223°
2026-04-22 01:18 34.03758 -78.94183 17781 ft 300 kts 223°
2026-04-22 01:18 34.02277 -78.95949 17477 ft 299 kts 223°
2026-04-22 01:19 34.00793 -78.97712 17178 ft 299 kts 223°
2026-04-22 01:19 33.99328 -78.99458 16886 ft 298 kts 223°
2026-04-22 01:19 33.97870 -79.01187 16590 ft 297 kts 223°
2026-04-22 01:19 33.96397 -79.02939 16291 ft 297 kts 223°
2026-04-22 01:20 33.94929 -79.04684 15991 ft 296 kts 223°
2026-04-22 01:20 33.93459 -79.06428 15695 ft 296 kts 223°
2026-04-22 01:20 33.91992 -79.08160 15392 ft 295 kts 223°
2026-04-22 01:20 33.90530 -79.09898 15093 ft 295 kts 223°
2026-04-22 01:21 33.89072 -79.11625 14794 ft 294 kts 223°
2026-04-22 01:21 33.87617 -79.13352 14484 ft 293 kts 223°
2026-04-22 01:21 33.86182 -79.15049 14198 ft 293 kts 223°
2026-04-22 01:21 33.84744 -79.16752 13952 ft 290 kts 223°
2026-04-22 01:22 33.83301 -79.18458 13718 ft 287 kts 223°
2026-04-22 01:22 33.81882 -79.20137 13492 ft 284 kts 223°
2026-04-22 01:22 33.80475 -79.21795 13264 ft 282 kts 223°
2026-04-22 01:22 33.79085 -79.23438 13025 ft 280 kts 221°
2026-04-22 01:23 33.77565 -79.24881 12803 ft 276 kts 211°
2026-04-22 01:23 33.75932 -79.26070 12577 ft 273 kts 207°
2026-04-22 01:23 33.74282 -79.27191 12350 ft 272 kts 207°
2026-04-22 01:23 33.72674 -79.28330 12125 ft 271 kts 209°
2026-04-22 01:24 33.71065 -79.29549 11905 ft 270 kts 210°
2026-04-22 01:24 33.69505 -79.30742 11673 ft 268 kts 210°
2026-04-22 01:24 33.67925 -79.31936 11446 ft 267 kts 210°
2026-04-22 01:24 33.66353 -79.33118 11222 ft 266 kts 210°
2026-04-22 01:25 33.64792 -79.34298 10987 ft 265 kts 210°
2026-04-22 01:25 33.63234 -79.35471 10768 ft 263 kts 209°
2026-04-22 01:25 33.61686 -79.36637 10542 ft 262 kts 210°
2026-04-22 01:25 33.60145 -79.37798 10331 ft 260 kts 209°
2026-04-22 01:26 33.58617 -79.38947 10130 ft 258 kts 209°
2026-04-22 01:26 33.57100 -79.40090 9925 ft 256 kts 209°
2026-04-22 01:26 33.55617 -79.41204 9729 ft 255 kts 209°
2026-04-22 01:26 33.54114 -79.42333 9525 ft 253 kts 209°
2026-04-22 01:27 33.52622 -79.43457 9323 ft 251 kts 209°
2026-04-22 01:27 33.51143 -79.44568 9125 ft 250 kts 209°
2026-04-22 01:27 33.49671 -79.45666 8922 ft 248 kts 209°
2026-04-22 01:27 33.48212 -79.46759 8721 ft 247 kts 209°
2026-04-22 01:28 33.46762 -79.47861 8518 ft 245 kts 209°
2026-04-22 01:28 33.45324 -79.48945 8316 ft 244 kts 209°
2026-04-22 01:28 33.43890 -79.50018 8115 ft 242 kts 209°
2026-04-22 01:28 33.42464 -79.51084 7916 ft 241 kts 209°
2026-04-22 01:29 33.41067 -79.52137 7714 ft 239 kts 209°
2026-04-22 01:29 33.39659 -79.53192 7504 ft 238 kts 209°
2026-04-22 01:29 33.38260 -79.54238 7309 ft 236 kts 208°
2026-04-22 01:29 33.36869 -79.55282 7106 ft 234 kts 208°
2026-04-22 01:30 33.35486 -79.56311 6911 ft 233 kts 208°
2026-04-22 01:30 33.34121 -79.57340 6701 ft 231 kts 209°
2026-04-22 01:30 33.32768 -79.58379 6498 ft 230 kts 209°
2026-04-22 01:30 33.31426 -79.59401 6296 ft 228 kts 209°
2026-04-22 01:31 33.30105 -79.60401 6087 ft 226 kts 208°
2026-04-22 01:31 33.28780 -79.61402 5891 ft 224 kts 208°
2026-04-22 01:31 33.27466 -79.62395 5689 ft 222 kts 208°
2026-04-22 01:31 33.26165 -79.63384 5488 ft 220 kts 209°
2026-04-22 01:32 33.25311 -79.64033 5351 ft 219 kts 208°
2026-04-22 01:32 33.24037 -79.64999 5149 ft 217 kts 208°
2026-04-22 01:32 33.22755 -79.65965 4944 ft 217 kts 208°
2026-04-22 01:32 33.21473 -79.66936 4746 ft 219 kts 209°
2026-04-22 01:33 33.20395 -79.68237 4523 ft 226 kts 238°
2026-04-22 01:33 33.19696 -79.69922 4341 ft 227 kts 243°
2026-04-22 01:33 33.19048 -79.71656 4150 ft 228 kts 244°
2026-04-22 01:33 33.18406 -79.73375 3958 ft 228 kts 243°
2026-04-22 01:34 33.17726 -79.75087 3764 ft 227 kts 241°
2026-04-22 01:34 33.17032 -79.76783 3563 ft 228 kts 242°
2026-04-22 01:34 33.16316 -79.78550 3381 ft 244 kts 242°
2026-04-22 01:34 33.15559 -79.80414 3221 ft 254 kts 242°
2026-04-22 01:35 33.14790 -79.82316 3075 ft 253 kts 242°
2026-04-22 01:35 33.14046 -79.84174 2899 ft 250 kts 242°
2026-04-22 01:35 33.13307 -79.86040 2775 ft 245 kts 242°
2026-04-22 01:35 33.12600 -79.87842 2715 ft 235 kts 242°
2026-04-22 01:36 33.11932 -79.89565 2681 ft 223 kts 243°
2026-04-22 01:36 33.11322 -79.91169 2691 ft 202 kts 243°
2026-04-22 01:36 33.10757 -79.92675 2679 ft 200 kts 243°
2026-04-22 01:36 33.10186 -79.94211 2679 ft 205 kts 243°
2026-04-22 01:37 33.09605 -79.95781 2680 ft 209 kts 243°
2026-04-22 01:37 33.09035 -79.97329 2679 ft 212 kts 244°
2026-04-22 01:37 33.08424 -79.99002 2678 ft 214 kts 244°
2026-04-22 01:37 33.07831 -80.00645 2673 ft 216 kts 244°
2026-04-22 01:38 33.07246 -80.02270 2593 ft 222 kts 244°
2026-04-22 01:38 33.06623 -80.04014 2384 ft 232 kts 244°
2026-04-22 01:38 33.05935 -80.05586 2496 ft 189 kts 227°
2026-04-22 01:38 33.05358 -80.06179 2368 ft 173 kts 209°
2026-04-22 01:39 33.05299 -80.06223 2336 ft 173 kts 206°
2026-04-22 01:39 33.04584 -80.06583 2072 ft 164 kts 188°
2026-04-22 01:40 33.03743 -80.06730 2255 ft 128 kts 179°
2026-04-22 01:40 33.02906 -80.06505 1869 ft 124 kts 143°
2026-04-22 01:40 33.01994 -80.06615 1578 ft 146 kts 195°
2026-04-22 01:40 33.01095 -80.07202 1644 ft 139 kts 204°
2026-04-22 01:41 33.00377 -80.08026 1466 ft 158 kts 238°
2026-04-22 01:41 32.99648 -80.08990 1291 ft 162 kts 205°
2026-04-22 01:41 32.98598 -80.09296 1520 ft 151 kts 182°
2026-04-22 01:41 32.97494 -80.09270 1625 ft 172 kts 166°
2026-04-22 01:42 32.96361 -80.08730 1508 ft 168 kts 146°
2026-04-22 01:42 32.95520 -80.08054 1256 ft 128 kts 140°
2026-04-22 01:42 32.94836 -80.07525 932 ft 112 kts 140°
2026-04-22 01:42 32.94156 -80.06962 717 ft 124 kts 141°
2026-04-22 01:43 32.93408 -80.06418 570 ft 133 kts 145°
2026-04-22 01:43 32.92601 -80.05811 421 ft 140 kts 143°
2026-04-22 01:43 32.91807 -80.05200 217 ft 127 kts 143°
2026-04-22 01:43 32.91144 -80.04697 43 ft 95 kts 143°
2026-04-22 01:44 32.90700 -80.04350 38 ft 56 kts 146°
2026-04-22 01:44 32.90464 -80.04174 37 ft 23 kts 148°
2026-04-22 01:44 32.90425 -80.04084 38 ft 13 kts 62°
2026-04-22 01:44 32.90456 -80.04027 39 ft 0 kts 57°
2026-04-22 01:45 32.90459 -80.04021 39 ft 4 kts 57°
2026-04-22 01:45 32.90486 -80.03971 39 ft 3 kts 57°
2026-04-22 01:45 32.90493 -80.03945 39 ft 1 kts 95°
2026-04-22 01:46 32.90438 -80.03869 39 ft 19 kts 138°
2026-04-22 01:46 32.90338 -80.03763 39 ft 20 kts 138°
2026-04-22 01:46 32.90235 -80.03651 41 ft 20 kts 136°
2026-04-22 01:46 32.90183 -80.03511 39 ft 19 kts 111°
2026-04-22 01:47 32.90134 -80.03465 39 ft 2 kts 185°
2026-04-22 01:47 32.90061 -80.03497 39 ft 19 kts 204°
2026-04-22 01:47 32.89938 -80.03562 39 ft 20 kts 199°
2026-04-22 01:47 32.89797 -80.03575 38 ft 21 kts 181°
2026-04-22 01:48 32.89642 -80.03581 36 ft 23 kts 181°
2026-04-22 01:48 32.89480 -80.03585 38 ft 23 kts 181°
2026-04-22 01:48 32.89315 -80.03591 39 ft 24 kts 181°
2026-04-22 01:48 32.89146 -80.03597 39 ft 25 kts 181°
2026-04-22 01:49 32.88980 -80.03606 39 ft 24 kts 187°
2026-04-22 01:49 32.88813 -80.03634 39 ft 25 kts 187°
2026-04-22 01:49 32.88686 -80.03641 39 ft 14 kts 147°
2026-04-22 01:49 32.88617 -80.03607 39 ft 6 kts 165°
2026-04-22 01:50 32.88597 -80.03600 39 ft 0 kts 165°